{"data":{"norad_id":45764,"intl_designator":"2020-038AL","name":"STARLINK-1502","alt_names":[],"object_type":"PAYLOAD","status":"ACTIVE","operator":null,"country":"US","launch_date":"2020-06-13","launch_site_code":"AFETR","launch_vehicle":null,"mission":null,"orbit_class":"UNKNOWN","rcs_meters":null,"size_class":null,"mass_kg":null,"dimensions":null,"purposes":["comms"],"wikipedia_slug":null,"has_3d_model":false,"image_url":null,"decayed_at":null,"tle_current":{"epoch":"2026-05-25T03:04:33.618432Z","epoch_age_seconds":60115,"freshness":"FRESH","line1":"1 45764U 20038AL  26145.12816688  .00170831  00000+0  20963-2 0  9998","line2":"2 45764  53.0475 197.4567 0007857 308.8486  51.1824 15.59226019328515","mean_motion":15.59226019,"eccentricity":0.0007857,"inclination_deg":53.0475,"raan_deg":197.4567,"arg_perigee_deg":308.8486,"mean_anomaly_deg":51.1824,"bstar":0.0020963,"rev_number":32851,"period_min":92.353512733422,"perigee_km":384.57822456155,"apogee_km":395.21351141031,"semimajor_km":6768.0328679859,"source":"CELESTRAK","updated_at":"2026-05-25T13:38:16.455986Z"}}}